Location: Austin
(30.3000°N, 97.7500°W)
Time: 05:09:44
(UTC-06:00)

YAOGAN 1 - Pass Details

Date: 19 November 2024
Orbit: 609 x 611 km, 97.8° (Epoch: 06 December)

Event Time Altitude Azimuth Distance (km) Brightness Sun altitude
Rises 18:06:00 0° 120° (ESE) 2,862 5.6 -7.6°
Reaches altitude 10° 18:09:44 10° 85° (E) 1,962 4.5 -8.4°
Maximum altitude 18:10:59 11° 68° (ENE) 1,887 4.4 -8.7°
Drops below altitude 10° 18:12:15 10° 51° (NE) 1,965 4.6 -8.9°
Sets 18:15:59 0° 16° (NNE) 2,873 5.7 -9.7°
